Here is an update on the GOSAT objects now in orbit.
Does anyone have a list of what each object is now believed to be?
Listen for KAGAYAKI Satellite. Object D is thought to be KAGAYAKI
Per AMSAT News Service Bulletin 046.01 from AMSAT HQ SILVER SPRING, MD.
dated February 15, 2009:
"The KAGAYAKI satellite has not been heard since it was launched with
Japan's January 23 GOSAT satellite. KAGAYAKI was to transmit morse
code on FM after separation from the H-2A booster. If operational KAGAYAKI
should be tranmitting morse code on FM or 9600bps packet at 437.375MHz.
The command team thinks the satellite's output power may very low
because the antenna or solar panel has not extended properly. Ground
controllers have been searching for a downlink signal using a spectrum
analyzer."
OBJECT A
1 33492U 09002A 09050.61092329 -.00055461 00000-0 -98562-2 0 758
2 33492 098.0483 161.8148 0001354 112.8012 247.1331 14.67535032 4025
OBJECT B
1 33493U 09002B 09050.84956075 .00000167 00000-0 28828-4 0 1135
2 33493 098.0457 162.6340 0018923 261.0352 098.8713 14.80613862 4101
OBJECT C
1 33494U 09002C 09050.86902654 .00000006 00000-0 92397-5 0 844
2 33494 098.0324 162.0748 0002673 272.9158 087.1741 14.68703689 4072
OBJECT D
1 33495U 09002D 09050.84221084 -.00000012 00000-0 61454-5 0 820
2 33495 098.0270 162.0854 0007743 331.8785 028.1998 14.70127716 4045
OBJECT E
1 33496U 09002E 09050.85549108 -.00000008 00000-0 69222-5 0 828
2 33496 098.0272 162.0711 0005485 302.9636 057.1033 14.69422588 4040
OBJECT F
1 33497U 09002F 09050.82236895 .00000055 00000-0 18015-4 0 859
2 33497 098.0303 161.9707 0002742 132.4470 227.6963 14.67563738 4030
OBJECT G
1 33498U 09002G 09050.68478739 .00000149 00000-0 32152-4 0 840
2 33498 098.0278 161.9950 0012567 345.3844 014.7000 14.71272331 4036
OBJECT H
1 33499U 09002H 09050.83226725 .00000134 00000-0 30092-4 0 861
2 33499 098.0294 162.1147 0009690 343.1625 016.9254 14.70660727 4058